DW0452 Weather Reports


time (UTC)temp
F
wind
direction
speed
knots
gust
knots
rain 1hr
in
rain 24hr
in
rain mn
in
humidity
%
barometer
mb
20260503211502 54 299 0.0 0.0 0.00 0.00 0.00 67 1009.5
20260503211343 55 300 0.0 0.0 0.00 0.00 0.00 64 1008.8
20260503210909 55 301 0.0 0.0 0.00 0.00 0.00 64 1008.8
20260503210344 55 244 0.0 0.0 0.00 0.00 0.00 63 1009.2
20260503210025 55 293 0.0 0.0 0.00 0.00 0.00 61 1010.0
20260503205841 55 328 0.0 0.0 0.00 0.00 0.00 62 1009.5
20260503205338 55 305 0.0 0.0 0.00 0.00 0.00 61 1009.6
20260503204833 55 280 0.0 0.0 0.00 0.00 0.00 65 1009.6
20260503204548 55 318 0.0 0.0 0.00 0.00 0.00 63 1010.3
20260503204329 56 294 0.0 0.0 0.00 0.00 0.00 63 1009.5
20260503203843 56 306 0.0 0.0 0.00 0.00 0.00 60 1009.5
20260503203339 56 335 0.0 0.0 0.00 0.00 0.00 60 1009.4
20260503203033 55 270 0.0 0.0 0.00 0.00 0.00 60 1010.1
20260503202837 56 305 0.0 0.0 0.00 0.00 0.00 60 1009.4
20260503202334 56 280 0.0 0.0 0.00 0.00 0.00 60 1009.5
20260503201830 57 310 0.0 0.0 0.00 0.00 0.00 60 1009.4
20260503201548 56 320 0.0 0.0 0.00 0.00 0.00 59 1010.1
20260503201348 57 305 0.0 0.0 0.00 0.00 0.00 59 1009.4
20260503200844 57 285 0.0 0.0 0.00 0.00 0.00 59 1009.4
20260503200340 57 312 0.0 0.0 0.00 0.00 0.00 58 1009.6
20260503200019 56 291 0.0 0.0 0.00 0.00 0.00 59 1010.4
20260503195837 57 258 0.0 0.0 0.00 0.00 0.00 59 1009.6
20260503195334 57 260 0.0 0.0 0.00 0.00 0.00 57 1009.6
20260503194829 57 301 0.0 0.0 0.00 0.00 0.00 56 1009.6
20260503194553 57 296 0.0 0.0 0.00 0.00 0.00 57 1010.3
20260503194342 57 302 0.0 0.0 0.00 0.00 0.00 57 1009.6
20260503193840 57 293 0.0 0.0 0.00 0.00 0.00 56 1009.7
20260503193338 57 291 0.0 0.0 0.00 0.00 0.00 57 1009.7
20260503193006 57 316 0.0 0.0 0.00 0.00 0.00 56 1010.5
20260503192904 58 297 0.0 0.0 0.00 0.00 0.00 56 1009.7
20260503192339 58 296 0.0 0.0 0.00 0.00 0.00 54 1009.6
20260503191837 58 312 0.0 0.0 0.00 0.00 0.00 57 1009.8
20260503191518 57 310 0.0 0.0 0.00 0.00 0.00 55 1010.5
20260503191333 57 293 0.0 0.0 0.00 0.00 0.00 55 1009.7
20260503190829 57 284 0.0 0.0 0.00 0.00 0.00 55 1009.8
20260503190345 58 305 0.0 0.0 0.00 0.00 0.00 54 1009.8
20260503190041 57 274 0.0 0.0 0.00 0.00 0.00 53 1010.7
20260503185844 58 299 0.0 0.0 0.00 0.00 0.00 53 1009.8
20260503185340 58 328 0.0 0.0 0.00 0.00 0.00 53 1009.8
20260503184832 58 270 0.0 0.0 0.00 0.00 0.00 50 1009.7
20260503184607 58 241 0.0 0.0 0.00 0.00 0.00 50 1010.5
20260503184348 58 289 0.0 0.0 0.00 0.00 0.00 52 1009.7
20260503183845 58 304 0.0 0.0 0.00 0.00 0.00 51 1009.7
20260503183344 58 250 0.0 0.0 0.00 0.00 0.00 48 1009.5
20260503183035 58 261 0.0 0.0 0.00 0.00 0.00 48 1010.5
20260503182841 59 295 0.0 0.0 0.00 0.00 0.00 47 1009.6
20260503182337 59 281 0.0 0.0 0.00 0.00 0.00 48 1009.6
20260503181854 59 280 0.0 0.0 0.00 0.00 0.00 49 1009.5
20260503181539 59 259 0.0 0.0 0.00 0.00 0.00 51 1010.4
20260503181329 60 313 0.0 0.0 0.00 0.00 0.00 46 1009.6
20260503180845 59 245 0.0 0.0 0.00 0.00 0.00 50 1009.8
20260503180342 59 296 0.0 0.0 0.00 0.00 0.00 49 1009.8
20260503180002 58 284 0.0 0.0 0.00 0.00 0.00 49 1010.7
20260503175835 59 262 0.0 0.0 0.00 0.00 0.00 48 1009.9
20260503175332 59 259 0.0 0.0 0.00 0.00 0.00 54 1010.0
20260503174830 59 278 0.0 0.0 0.00 0.00 0.00 52 1010.0
20260503174534 59 253 0.0 0.0 0.00 0.00 0.00 53 1010.9
20260503174346 59 224 0.0 0.0 0.00 0.00 0.00 58 1010.0
20260503173844 59 266 0.0 0.0 0.00 0.00 0.00 58 1010.2
20260503173410 60 253 0.0 0.0 0.00 0.00 0.00 60 1010.3
20260503173053 59 225 0.0 0.0 0.00 0.00 0.00 59 1011.0
20260503172845 60 248 0.0 0.0 0.00 0.00 0.00 60 1010.3
20260503172341 60 240 0.0 0.0 0.00 0.00 0.00 59 1010.4
20260503171839 59 215 0.0 0.0 0.00 0.00 0.00 60 1010.5
20260503171603 59 291 0.0 0.0 0.00 0.00 0.00 58 1011.3
20260503171403 59 241 0.0 0.0 0.00 0.00 0.00 59 1010.6
20260503170832 59 236 0.0 0.0 0.00 0.00 0.00 58 1010.7
20260503170329 59 293 0.0 0.0 0.00 0.00 0.00 58 1010.7
20260503150850 53 247 0.0 0.0 0.00 0.00 0.00 55 1012.0
20260503150344 53 240 0.0 0.0 0.00 0.00 0.00 53 1012.2
20260503131342 42 276 0.0 0.0 0.00 0.00 0.00 72 1013.5
20260503130835 41 268 0.0 0.0 0.00 0.00 0.00 73 1013.5
20260503130351 41 258 0.0 0.0 0.00 0.00 0.00 75 1013.5
20260503110328 33 297 0.0 0.0 0.00 0.00 0.00 86 1013.3
20260503100104 33 274 0.0 0.0 0.00 0.00 0.00 84 1014.2
20260503090347 36 260 0.0 0.0 0.00 0.00 0.00 82 1013.3
20260503081603 36 252 0.0 0.0 0.00 0.00 0.00 83 1014.7
20260503081331 36 253 0.0 0.0 0.00 0.00 0.00 83 1013.7
20260503080845 36 253 0.0 0.0 0.00 0.00 0.00 83 1013.7
20260503080343 36 253 0.0 0.0 0.00 0.00 0.00 83 1013.7
20260503072834 36 247 0.0 0.0 0.00 0.00 0.00 84 1013.7
20260503072332 36 246 0.0 0.0 0.00 0.00 0.00 84 1013.8
20260503071828 36 242 0.0 0.0 0.00 0.00 0.00 85 1013.7
20260503071527 35 256 0.0 0.0 0.00 0.00 0.00 85 1014.9
20260503071343 35 256 0.0 0.0 0.00 0.00 0.00 85 1013.8
20260503070841 35 257 0.0 0.0 0.00 0.00 0.00 85 1013.7
20260503070358 35 249 0.0 0.0 0.00 0.00 0.00 85 1013.8
20260503060340 33 252 0.0 0.0 0.00 0.00 0.00 80 1014.3
20260503060106 33 251 0.0 0.0 0.00 0.00 0.00 80 1015.5
20260503054847 33 254 0.0 0.0 0.00 0.00 0.00 79 1014.4
20260503054503 33 253 0.0 0.0 0.00 0.00 0.00 78 1015.7
20260503054403 33 251 0.0 0.0 0.00 0.00 0.00 78 1014.5
20260503053851 33 252 0.0 0.0 0.00 0.00 0.00 78 1014.5
20260503053342 33 252 0.0 0.0 0.00 0.00 0.00 77 1014.6
20260503053058 33 248 0.0 0.0 0.00 0.00 0.00 77 1015.7
20260503052837 33 246 0.0 0.0 0.00 0.00 0.00 76 1014.7
20260503052355 33 247 0.0 0.0 0.00 0.00 0.00 76 1014.6
20260503051852 33 247 0.0 0.0 0.00 0.00 0.00 75 1014.8
20260503051542 32 247 0.0 0.0 0.00 0.00 0.00 74 1016.0
20260503051347 33 247 0.0 0.0 0.00 0.00 0.00 74 1014.8
20260503050844 33 247 0.0 0.0 0.00 0.00 0.00 74 1014.9
20260503050342 33 247 0.0 0.0 0.00 0.00 0.00 73 1014.9
20260503050002 32 246 0.0 0.0 0.00 0.00 0.00 73 1016.1
20260503045838 33 297 0.0 0.0 0.00 0.00 0.00 73 1014.9
20260503045332 33 297 0.0 0.0 0.00 0.00 0.00 73 1014.9
20260503044849 33 297 0.0 0.0 0.00 0.00 0.00 72 1014.9
20260503044539 32 297 0.0 0.0 0.00 0.00 0.00 72 1016.2
20260503044346 33 297 0.0 0.0 0.00 0.00 0.00 72 1014.9
20260503043846 33 297 0.0 0.0 0.00 0.00 0.00 72 1014.9
20260503043342 33 297 0.0 0.0 0.00 0.00 0.00 71 1015.0
20260503043114 33 297 0.0 0.0 0.00 0.00 0.00 71 1016.2
20260503042907 33 297 0.0 0.0 0.00 0.00 0.00 72 1014.9
20260503042343 33 297 0.0 0.0 0.00 0.00 0.00 72 1015.0
20260503041842 34 297 0.0 0.0 0.00 0.00 0.00 71 1015.1
20260503041505 33 297 0.0 0.0 0.00 0.00 0.00 70 1016.4
20260503041339 34 297 0.0 0.0 0.00 0.00 0.00 69 1015.1
20260503040834 34 297 0.0 0.0 0.00 0.00 0.00 67 1015.1
20260503040412 34 297 0.0 0.0 0.00 0.00 0.00 66 1015.2
20260503040111 34 297 0.0 0.0 0.00 0.00 0.00 66 1016.4
20260503035837 34 297 0.0 0.0 0.00 0.00 0.00 66 1015.1
20260503035352 34 297 0.0 0.0 0.00 0.00 0.00 66 1015.1
20260503034847 35 297 0.0 0.0 0.00 0.00 0.00 65 1015.1
20260503034526 34 297 0.0 0.0 0.00 0.00 0.00 66 1016.4
20260503034341 35 297 0.0 0.0 0.00 0.00 0.00 66 1015.2
20260503033903 35 297 0.0 0.0 0.00 0.00 0.00 65 1015.2
20260503033356 35 297 0.0 0.0 0.00 0.00 0.00 66 1015.2
20260503033108 34 297 0.0 0.0 0.00 0.00 0.00 65 1016.5
20260503032849 35 297 0.0 0.0 0.00 0.00 0.00 64 1015.3
20260503032408 35 297 0.0 0.0 0.00 0.00 0.00 65 1015.3
20260503031841 35 297 0.0 0.0 0.00 0.00 0.00 64 1015.3
20260503031553 34 297 0.0 0.0 0.00 0.00 0.00 64 1016.4
20260503031336 35 297 0.0 0.0 0.00 0.00 0.00 64 1015.3
20260503030850 35 297 0.0 0.0 0.00 0.00 0.00 65 1015.3
20260503030344 35 297 0.0 0.0 0.00 0.00 0.00 65 1015.3
20260503030005 35 297 0.0 0.0 0.00 0.00 0.00 64 1016.5
20260503025909 35 297 0.0 0.0 0.00 0.00 0.00 64 1015.3
20260503025340 35 297 0.0 0.0 0.00 0.00 0.00 65 1015.3
20260503024837 35 297 0.0 0.0 0.00 0.00 0.00 64 1015.4
20260503024506 35 297 0.0 0.0 0.00 0.00 0.00 63 1016.6
20260503024350 36 297 0.0 0.0 0.00 0.00 0.00 63 1015.5
20260503023842 36 297 0.0 0.0 0.00 0.00 0.00 62 1015.5
20260503023406 36 297 0.0 0.0 0.00 0.00 0.00 62 1015.5
20260503023022 36 297 0.0 0.0 0.00 0.00 0.00 63 1016.7
20260503022839 36 297 0.0 0.0 0.00 0.00 0.00 63 1015.6
20260503022332 36 297 0.0 0.0 0.00 0.00 0.00 62 1015.6
20260503021851 36 297 0.0 0.0 0.00 0.00 0.00 60 1015.7
20260503021532 36 297 0.0 0.0 0.00 0.00 0.00 61 1016.8
20260503021345 37 297 0.0 0.0 0.00 0.00 0.00 60 1015.6
20260503020906 37 297 0.0 0.0 0.00 0.00 0.00 61 1015.7
20260503020340 37 297 0.0 0.0 0.00 0.00 0.00 60 1015.6
20260503020020 37 297 0.0 0.0 0.00 0.00 0.00 59 1016.7
20260503015852 38 297 0.0 0.0 0.00 0.00 0.00 59 1015.6
20260503015343 38 297 0.0 0.0 0.00 0.00 0.00 59 1015.5
20260503014856 38 297 0.0 0.0 0.00 0.00 0.00 59 1015.5
20260503014522 38 297 0.0 0.0 0.00 0.00 0.00 58 1016.8
20260503014350 38 296 0.0 0.0 0.00 0.00 0.00 57 1015.5
20260503013846 39 297 0.0 0.0 0.00 0.00 0.00 57 1015.6
20260503013339 39 297 0.0 0.0 0.00 0.00 0.00 57 1015.5
20260503013048 38 296 0.0 0.0 0.00 0.00 0.00 57 1016.6
20260503012902 39 296 0.0 0.0 0.00 0.00 0.00 56 1015.5
20260503012354 39 295 0.0 0.0 0.00 0.00 0.00 56 1015.5
20260503011846 39 295 0.0 0.0 0.00 0.00 0.00 56 1015.6
20260503011536 39 296 0.0 0.0 0.00 0.00 0.00 56 1016.8
20260503011337 39 297 0.0 0.0 0.00 0.00 0.00 56 1015.5
20260503010830 40 303 0.0 0.0 0.00 0.00 0.00 56 1015.5
20260503010348 40 297 0.0 0.0 0.00 0.00 0.00 55 1015.4
20260503010056 40 294 0.0 0.0 0.00 0.00 0.00 55 1016.6
20260503005847 40 294 0.0 0.0 0.00 0.00 0.00 54 1015.4
20260503005342 40 293 0.0 0.0 0.00 0.00 0.00 54 1015.3
20260503004839 41 293 0.0 0.0 0.00 0.00 0.00 52 1015.3
20260503004520 40 305 0.0 0.0 0.00 0.00 0.00 52 1016.5
20260503004333 41 305 0.0 0.0 0.00 0.00 0.00 52 1015.3
20260503003847 41 305 0.0 0.0 0.00 0.00 0.00 51 1015.3
20260503003341 42 312 0.0 0.0 0.00 0.00 0.00 50 1015.2
20260503003036 41 335 0.0 0.0 0.00 0.00 0.00 49 1016.4
20260503002833 42 341 0.0 0.0 0.00 0.00 0.00 49 1015.2
20260503002343 42 316 0.0 0.0 0.00 0.00 0.00 48 1015.1
20260503001835 42 334 0.0 0.0 0.00 0.00 0.00 48 1015.1
20260503001521 42 314 0.0 0.0 0.00 0.00 0.00 46 1016.2
20260503001346 43 303 0.0 0.0 0.00 0.00 0.00 46 1015.0
20260503000841 43 4 0.0 0.0 0.00 0.00 0.00 45 1015.0
20260503000354 43 335 0.0 0.0 0.00 0.00 0.00 45 1015.1
20260503000017 43 329 0.0 0.0 0.00 0.00 0.00 44 1016.2
20260502235846 43 293 0.0 0.0 0.00 0.00 0.00 44 1015.1
20260502235341 44 326 0.0 0.0 0.00 0.00 0.00 44 1015.0
20260502234834 44 4 0.0 0.0 0.00 0.00 0.00 45 1015.1
20260502234544 43 308 0.0 0.0 0.00 0.00 0.00 45 1016.3
20260502234345 44 341 0.0 0.0 0.00 0.00 0.00 44 1015.1
20260502233839 44 333 0.0 0.0 0.00 0.00 0.00 45 1015.0
20260502233335 44 286 0.0 0.0 0.00 0.00 0.00 44 1015.0
20260502233100 44 310 0.0 0.0 0.00 0.00 0.00 45 1016.2
20260502232848 45 344 0.0 0.0 0.00 0.00 0.00 44 1015.0
20260502232342 45 329 0.0 0.0 0.00 0.00 0.00 46 1015.0
20260502231838 46 325 0.0 0.0 0.00 0.00 0.00 45 1015.0
20260502231525 45 282 0.0 0.0 0.00 0.00 0.00 46 1016.1
20260502231335 46 316 0.0 0.0 0.00 0.00 0.00 46 1015.0
20260502230833 45 336 0.0 0.0 0.00 0.00 0.00 47 1015.1
20260502230349 45 310 0.0 0.0 0.00 0.00 0.00 46 1015.0
20260502230045 44 303 0.0 0.0 0.00 0.00 0.00 50 1016.2
20260502225845 44 306 0.0 0.0 0.00 0.00 0.00 49 1015.0
20260502225343 44 316 0.0 0.0 0.00 0.00 0.00 51 1015.1
20260502224834 44 326 0.0 0.0 0.00 0.00 0.00 50 1015.1
20260502224604 43 267 0.0 0.0 0.00 0.00 0.00 50 1016.3
20260502224332 44 295 0.0 0.0 0.00 0.00 0.00 50 1015.0
20260502223851 44 19 0.0 0.0 0.00 0.00 0.00 51 1015.1
20260502223344 44 342 0.0 0.0 0.00 0.00 0.00 50 1015.1
20260502223024 43 303 0.0 0.0 0.00 0.00 0.00 52 1016.3
20260502222905 44 299 0.0 0.0 0.00 0.00 0.00 53 1015.2
20260502222339 44 319 0.0 0.0 0.00 0.00 0.00 54 1015.1
20260502221832 44 347 0.0 0.0 0.00 0.00 0.00 56 1015.1
20260502221603 43 343 0.0 0.0 0.00 0.00 0.00 56 1016.2
20260502221330 44 39 0.0 0.0 0.00 0.00 0.00 55 1015.1
20260502220848 44 354 0.0 0.0 0.00 0.00 0.00 56 1015.1
20260502220342 44 62 0.0 0.0 0.00 0.00 0.00 58 1015.1
20260502220032 43 299 0.0 0.0 0.00 0.00 0.00 56 1016.4
20260502215842 44 81 0.0 0.0 0.00 0.00 0.00 56 1015.1
20260502215338 44 333 0.0 0.0 0.00 0.00 0.00 58 1015.2
20260502214834 44 50 0.0 0.0 0.00 0.00 0.00 58 1015.2
20260502214553 43 346 0.0 0.0 0.00 0.00 0.00 59 1016.4
20260502214333 44 340 0.0 0.0 0.00 0.00 0.00 59 1015.2
20260502213848 44 326 0.0 0.0 0.00 0.00 0.00 60 1015.2
20260502213346 44 302 0.0 0.0 0.00 0.00 0.00 61 1015.2
20260502213013 43 354 0.0 0.0 0.00 0.00 0.00 61 1016.4
20260502212843 44 51 0.0 0.0 0.00 0.00 0.00 61 1015.2
20260502212339 44 25 0.0 0.0 0.00 0.00 0.00 62 1015.3
20260502211838 44 339 0.0 0.0 0.00 0.00 0.00 63 1015.3